Location: Unspecified
(43.4680°N, 87.1740°E)
Time: 19:45:27
(UTC+00:00)

Cosmos 2369 Rocket - Pass Details

Date: 17 April 2021
Orbit: 828 x 853 km, 71.0° (Epoch: 12 May)

Event Time Altitude Azimuth Distance (km) Brightness Sun altitude
Exits shadow 21:30:46 - 169° (SSE) 2,844 4.7 -19.2°
Reaches altitude 10° 21:32:00 10° 163° (SSE) 2,424 4.4 -19.0°
Maximum altitude 21:36:46 30° 104° (ESE) 1,448 3.8 -18.4°
Drops below altitude 10° 21:41:34 10° 45° (NE) 2,447 5.9 -17.6°
Sets 21:44:16 0° 35° (NE) 3,388 6.7 -17.2°
